Погода в Северном

Россия / Костромская область     58°02′00″N   41°26′01″E
темп.,
°C
ветер,
м/с
пор.,
м/с
влажн.,
%
обл.,
%
осадки,
мм/ч
давл.,
гПа
погр.,
м
20 мая, пт
пт2000:00+2ссз4888100 0.1 1013571
03:00+1ссз4897100 0.7 1015510
06:00+2с4887100 0.0 1016684
09:00+6с47628 0.0 10171334
12:00+9с4640100 0.0 10172405
15:00+9с464295 0.0 10172247
18:00+8ссз455448 0.1 10161616
21:00+3ссз25808 0.2 101782
21 мая, сб
сб2100:000ссв25915 0.0 101795
03:00−1ссв25935 0.0 1017100
06:00+2с2571100 0.0 1016257
09:00+5с3555100 0.0 10151094
12:00+8с3543100 0.0 10131985
15:00+9с454594 0.0 10121810
18:00+8с3560100 0.1 1011982
21:00+3ссз237955 0.2 101143
22 мая, вс
вс2200:000с24845 0.0 101067
03:00−1ссв25835 0.0 100989
06:00+2с37645 0.0 1008249
09:00+7с464884 0.0 10071658
12:00+9с5743100 0.0 10052041
15:00+10ссв5843100 0.0 10052177
18:00+8ссв485399 0.0 10051587
21:00+3ссз247734 0.0 100559
23 мая, пн
пн2300:00+1сз278462 0.0 1004142
03:00+3ссз31073100 0.0 1004665
06:00+4сз4107096 0.0 1003562
09:00+7ссз5951100 0.0 10021314
12:00+9ссз6841100 0.0 10021572
15:00+10с5945100 0.0 10022086
18:00+5с61361100 0.0 10041566
21:00+4с41174100 0.0 10051184
24 мая, вт
вт2400:00+4с41175100 0.1 10041118
03:00+2ссз41195100 0.3 1005864
06:00+2ссз41097100 0.3 1006603
09:00+3с4888100 0.6 1008874
12:00+5с4670100 0.2 10101180
15:00+6с4668100 0.3 10121152
18:00+6с3669100 0.1 10131020
21:00+4с2777100 0.1 1015430